SUMZM KBGR-KOPF

Flight info

Callsign SUMZM
Flight time N/A
Altitude 20000
Route BGR5 BEEKN Q97 SAWED/N0195F220 Q97 PRMUS CUUDA3
Aircraft PC12/L-SDFGRWY/S

Departure

Time N/A
Airport Bangor International Airport (KBGR)

Arrival

Time 2026-05-03 22:50
Airport Miami-Opa Locka Executive Airport (KOPF)
Time Latitude Longitude Altitude Speed Heading
2026-05-03 20:15 33.55984 -79.39924 22129 ft 199 kts 224°
2026-05-03 20:15 33.54851 -79.40885 22126 ft 199 kts 224°
2026-05-03 20:15 33.53721 -79.41843 22126 ft 199 kts 224°
2026-05-03 20:15 33.52591 -79.42801 22130 ft 199 kts 224°
2026-05-03 20:16 33.51458 -79.43761 22129 ft 199 kts 224°
2026-05-03 20:16 33.50326 -79.44720 22128 ft 199 kts 224°
2026-05-03 20:16 33.49190 -79.45682 22130 ft 199 kts 224°
2026-05-03 20:16 33.48060 -79.46638 22127 ft 199 kts 224°
2026-05-03 20:17 33.46925 -79.47599 22133 ft 199 kts 224°
2026-05-03 20:17 33.45797 -79.48553 22131 ft 199 kts 224°
2026-05-03 20:17 33.44659 -79.49515 22126 ft 199 kts 224°
2026-05-03 20:17 33.43539 -79.50463 22123 ft 199 kts 224°
2026-05-03 20:18 33.42394 -79.51430 22123 ft 199 kts 224°
2026-05-03 20:18 33.41277 -79.52374 22122 ft 199 kts 224°
2026-05-03 20:18 33.40144 -79.53330 22133 ft 199 kts 224°
2026-05-03 20:18 33.39013 -79.54285 22133 ft 199 kts 224°
2026-05-03 20:19 33.37884 -79.55238 22130 ft 199 kts 224°
2026-05-03 20:19 33.36754 -79.56192 22128 ft 199 kts 224°
2026-05-03 20:19 33.35620 -79.57148 22129 ft 199 kts 224°
2026-05-03 20:19 33.34492 -79.58099 22125 ft 199 kts 224°
2026-05-03 20:20 33.33364 -79.59050 22127 ft 198 kts 224°
2026-05-03 20:20 33.32236 -79.60001 22128 ft 198 kts 224°
2026-05-03 20:20 33.31106 -79.60953 22127 ft 198 kts 224°
2026-05-03 20:20 33.29977 -79.61904 22130 ft 198 kts 224°
2026-05-03 20:21 33.28851 -79.62851 22132 ft 198 kts 224°
2026-05-03 20:21 33.27719 -79.63804 22128 ft 198 kts 224°
2026-05-03 20:21 33.26607 -79.64740 22131 ft 198 kts 224°
2026-05-03 20:21 33.25479 -79.65688 22126 ft 198 kts 224°
2026-05-03 20:22 33.24341 -79.66645 22122 ft 198 kts 224°
2026-05-03 20:22 33.23231 -79.67578 22126 ft 198 kts 224°
2026-05-03 20:22 33.22105 -79.68524 22127 ft 198 kts 224°
2026-05-03 20:22 33.20980 -79.69469 22123 ft 198 kts 224°
2026-05-03 20:23 33.19856 -79.70412 22126 ft 198 kts 224°
2026-05-03 20:23 33.18736 -79.71353 22122 ft 197 kts 224°
2026-05-03 20:23 33.17613 -79.72295 22125 ft 197 kts 224°
2026-05-03 20:23 33.16486 -79.73241 22125 ft 197 kts 224°
2026-05-03 20:24 33.15367 -79.74179 22122 ft 197 kts 224°
2026-05-03 20:24 33.14243 -79.75121 22122 ft 197 kts 224°
2026-05-03 20:24 33.13120 -79.76062 22125 ft 197 kts 224°
2026-05-03 20:24 33.11995 -79.77005 22127 ft 197 kts 224°
2026-05-03 20:25 33.10875 -79.77943 22130 ft 197 kts 224°
2026-05-03 20:25 33.09757 -79.78879 22125 ft 197 kts 224°
2026-05-03 20:25 33.08634 -79.79819 22129 ft 197 kts 224°
2026-05-03 20:25 33.07516 -79.80755 22130 ft 197 kts 224°
2026-05-03 20:26 33.06393 -79.81694 22122 ft 196 kts 224°
2026-05-03 20:26 33.05276 -79.82628 22124 ft 196 kts 224°
2026-05-03 20:26 33.04154 -79.83566 22122 ft 197 kts 224°
2026-05-03 20:26 33.03036 -79.84501 22121 ft 197 kts 224°
2026-05-03 20:27 33.01926 -79.85427 22123 ft 197 kts 224°
2026-05-03 20:27 33.00804 -79.86364 22121 ft 196 kts 224°
2026-05-03 20:27 32.99688 -79.87296 22123 ft 196 kts 224°
2026-05-03 20:27 32.98568 -79.88231 22119 ft 196 kts 224°
2026-05-03 20:28 32.97446 -79.89167 22120 ft 196 kts 224°
2026-05-03 20:28 32.96328 -79.90100 22119 ft 196 kts 224°
2026-05-03 20:28 32.95213 -79.91030 22120 ft 196 kts 224°
2026-05-03 20:28 32.94101 -79.91956 22119 ft 196 kts 224°
2026-05-03 20:29 32.92983 -79.92888 22119 ft 196 kts 224°
2026-05-03 20:29 32.91869 -79.93816 22119 ft 196 kts 224°
2026-05-03 20:29 32.90748 -79.94750 22119 ft 195 kts 224°
2026-05-03 20:29 32.89635 -79.95676 22120 ft 195 kts 224°
2026-05-03 20:30 32.88522 -79.96602 22118 ft 195 kts 224°
2026-05-03 20:30 32.87407 -79.97531 22118 ft 195 kts 224°
2026-05-03 20:30 32.86297 -79.98453 22120 ft 195 kts 224°
2026-05-03 20:30 32.85186 -79.99377 22117 ft 195 kts 224°
2026-05-03 20:31 32.84076 -80.00300 22119 ft 195 kts 224°
2026-05-03 20:31 32.82977 -80.01213 22119 ft 195 kts 224°
2026-05-03 20:31 32.81856 -80.02145 22118 ft 195 kts 224°
2026-05-03 20:31 32.80743 -80.03069 22118 ft 195 kts 224°
2026-05-03 20:32 32.79630 -80.03993 22121 ft 194 kts 224°
2026-05-03 20:32 32.78522 -80.04912 22133 ft 194 kts 224°
2026-05-03 20:32 32.77417 -80.05829 22130 ft 194 kts 224°
2026-05-03 20:32 32.76328 -80.06733 22128 ft 194 kts 224°
2026-05-03 20:33 32.75212 -80.07658 22130 ft 194 kts 224°
2026-05-03 20:33 32.74106 -80.08575 22131 ft 194 kts 224°
2026-05-03 20:33 32.73003 -80.09489 22128 ft 194 kts 224°
2026-05-03 20:33 32.71892 -80.10409 22125 ft 194 kts 224°
2026-05-03 20:34 32.70788 -80.11324 22129 ft 194 kts 224°
2026-05-03 20:34 32.69683 -80.12238 22128 ft 193 kts 224°
2026-05-03 20:34 32.68581 -80.13150 22129 ft 193 kts 224°
2026-05-03 20:34 32.67477 -80.14064 22131 ft 193 kts 224°
2026-05-03 20:35 32.66375 -80.14975 22129 ft 193 kts 224°
2026-05-03 20:35 32.65272 -80.15887 22127 ft 193 kts 224°
2026-05-03 20:35 32.64168 -80.16800 22129 ft 193 kts 224°
2026-05-03 20:35 32.63061 -80.17715 22127 ft 193 kts 224°
2026-05-03 20:36 32.61956 -80.18627 22130 ft 193 kts 224°
2026-05-03 20:36 32.60865 -80.19528 22128 ft 193 kts 224°
2026-05-03 20:36 32.59763 -80.20438 22130 ft 193 kts 224°
2026-05-03 20:36 32.58660 -80.21349 22132 ft 193 kts 224°
2026-05-03 20:37 32.57559 -80.22257 22131 ft 193 kts 224°
2026-05-03 20:37 32.56451 -80.23171 22128 ft 193 kts 224°
2026-05-03 20:37 32.55347 -80.24081 22132 ft 193 kts 224°
2026-05-03 20:37 32.54247 -80.24988 22133 ft 193 kts 224°
2026-05-03 20:38 32.53144 -80.25897 22132 ft 193 kts 224°
2026-05-03 20:38 32.52041 -80.26805 22132 ft 193 kts 223°
2026-05-03 20:38 32.50854 -80.27585 22135 ft 196 kts 218°
2026-05-03 20:38 32.49665 -80.28332 22136 ft 196 kts 218°
2026-05-03 20:39 32.48464 -80.29097 22135 ft 196 kts 218°
2026-05-03 20:39 32.47265 -80.29859 22137 ft 196 kts 218°
2026-05-03 20:39 32.46057 -80.30624 22136 ft 196 kts 218°
2026-05-03 20:39 32.44852 -80.31387 22136 ft 196 kts 218°
2026-05-03 20:40 32.43646 -80.32151 22127 ft 196 kts 218°
2026-05-03 20:40 32.42440 -80.32914 22128 ft 196 kts 218°
2026-05-03 20:40 32.41238 -80.33675 22140 ft 196 kts 218°
2026-05-03 20:40 32.40030 -80.34439 22143 ft 196 kts 218°
2026-05-03 20:41 32.38824 -80.35202 22136 ft 197 kts 218°
2026-05-03 20:41 32.38026 -80.35706 22139 ft 197 kts 218°
2026-05-03 20:41 32.36412 -80.36726 22139 ft 197 kts 218°
2026-05-03 20:41 32.35611 -80.37232 22143 ft 197 kts 218°
2026-05-03 20:42 32.34405 -80.37994 22137 ft 197 kts 218°
2026-05-03 20:42 32.33200 -80.38755 22130 ft 197 kts 218°
2026-05-03 20:42 32.31987 -80.39521 22139 ft 197 kts 218°
2026-05-03 20:42 32.30386 -80.40531 22132 ft 197 kts 218°
2026-05-03 20:43 32.29580 -80.41039 22132 ft 197 kts 218°
2026-05-03 20:43 32.28357 -80.41810 22134 ft 197 kts 218°
2026-05-03 20:43 32.27165 -80.42562 22140 ft 197 kts 218°
2026-05-03 20:43 32.25953 -80.43326 22142 ft 197 kts 218°
2026-05-03 20:44 32.24741 -80.44090 22142 ft 197 kts 218°
2026-05-03 20:44 32.23534 -80.44850 22146 ft 197 kts 218°
2026-05-03 20:44 32.22322 -80.45613 22138 ft 197 kts 218°
2026-05-03 20:44 32.21114 -80.46374 22142 ft 197 kts 218°
2026-05-03 20:45 32.19908 -80.47133 22146 ft 197 kts 218°
2026-05-03 20:45 32.18695 -80.47896 22146 ft 197 kts 218°
2026-05-03 20:45 32.17495 -80.48650 22138 ft 197 kts 218°
2026-05-03 20:45 32.16288 -80.49409 22139 ft 197 kts 218°
2026-05-03 20:46 32.15080 -80.50169 22145 ft 197 kts 218°
2026-05-03 20:46 32.13870 -80.50929 22137 ft 197 kts 218°
2026-05-03 20:46 32.12664 -80.51686 22129 ft 197 kts 218°
2026-05-03 20:46 32.11457 -80.52444 22139 ft 197 kts 218°
2026-05-03 20:47 32.10245 -80.53205 22140 ft 197 kts 218°
2026-05-03 20:47 32.09031 -80.53967 22146 ft 197 kts 218°
2026-05-03 20:47 32.07823 -80.54725 22143 ft 197 kts 218°
2026-05-03 20:47 32.06617 -80.55482 22145 ft 197 kts 218°
2026-05-03 20:48 32.05403 -80.56243 22142 ft 197 kts 218°
2026-05-03 20:48 32.04193 -80.57001 22138 ft 197 kts 218°
2026-05-03 20:48 32.02989 -80.57755 22136 ft 197 kts 218°
2026-05-03 20:48 32.01795 -80.58504 22135 ft 197 kts 218°
2026-05-03 20:49 32.00579 -80.59265 22135 ft 197 kts 217°
2026-05-03 20:49 31.99374 -80.60020 22137 ft 197 kts 217°
2026-05-03 20:49 31.98162 -80.60778 22133 ft 197 kts 218°
2026-05-03 20:49 31.96961 -80.61530 22133 ft 196 kts 217°
2026-05-03 20:50 31.95750 -80.62287 22131 ft 196 kts 217°
2026-05-03 20:50 31.94539 -80.63044 22131 ft 196 kts 217°
2026-05-03 20:50 31.93336 -80.63796 22128 ft 196 kts 217°
2026-05-03 20:50 31.92132 -80.64549 22128 ft 196 kts 217°
2026-05-03 20:51 31.90923 -80.65304 22128 ft 196 kts 217°
2026-05-03 20:51 31.89734 -80.66047 22129 ft 196 kts 217°
2026-05-03 20:51 31.88513 -80.66810 22128 ft 196 kts 217°
2026-05-03 20:51 31.87303 -80.67565 22123 ft 196 kts 217°
2026-05-03 20:52 31.86111 -80.68308 22122 ft 196 kts 217°
2026-05-03 20:52 31.84909 -80.69059 22128 ft 196 kts 217°
2026-05-03 20:52 31.83705 -80.69809 22126 ft 196 kts 217°
2026-05-03 20:52 31.82503 -80.70559 22124 ft 196 kts 217°
2026-05-03 20:53 31.81298 -80.71310 22124 ft 196 kts 217°
2026-05-03 20:53 31.80091 -80.72062 22127 ft 196 kts 217°
2026-05-03 20:53 31.78886 -80.72813 22128 ft 196 kts 217°
2026-05-03 20:53 31.77681 -80.73563 22128 ft 196 kts 217°
2026-05-03 20:54 31.76474 -80.74315 22128 ft 196 kts 217°
2026-05-03 20:54 31.74070 -80.75810 22123 ft 196 kts 217°
2026-05-03 20:54 31.72864 -80.76560 22122 ft 195 kts 217°
2026-05-03 20:55 31.71663 -80.77307 22124 ft 195 kts 217°
2026-05-03 20:55 31.70476 -80.78045 22124 ft 195 kts 217°
2026-05-03 20:55 31.69277 -80.78790 22125 ft 195 kts 217°
2026-05-03 20:55 31.68071 -80.79539 22128 ft 195 kts 217°
2026-05-03 20:56 31.66874 -80.80283 22125 ft 195 kts 217°
2026-05-03 20:56 31.65675 -80.81027 22125 ft 195 kts 217°
2026-05-03 20:56 31.64474 -80.81773 22127 ft 195 kts 217°
2026-05-03 20:56 31.63279 -80.82515 22126 ft 195 kts 217°
2026-05-03 20:57 31.62072 -80.83263 22125 ft 195 kts 217°
2026-05-03 20:57 31.60871 -80.84009 22125 ft 195 kts 217°
2026-05-03 20:57 31.59686 -80.84743 22126 ft 195 kts 217°
2026-05-03 20:57 31.58473 -80.85494 22126 ft 195 kts 217°
2026-05-03 20:58 31.57289 -80.86228 22125 ft 195 kts 217°
2026-05-03 20:58 31.56086 -80.86973 22127 ft 194 kts 217°
2026-05-03 20:58 31.54889 -80.87715 22125 ft 194 kts 217°
2026-05-03 20:58 31.53691 -80.88456 22123 ft 194 kts 217°
2026-05-03 20:59 31.52495 -80.89196 22124 ft 194 kts 217°
2026-05-03 20:59 31.51296 -80.89939 22126 ft 194 kts 217°
2026-05-03 20:59 31.50098 -80.90679 22124 ft 194 kts 217°
2026-05-03 20:59 31.48914 -80.91412 22125 ft 194 kts 217°
2026-05-03 21:00 31.47719 -80.92151 22123 ft 195 kts 217°
2026-05-03 21:00 31.46915 -80.92647 22124 ft 195 kts 217°
2026-05-03 21:00 31.45326 -80.93629 22123 ft 194 kts 217°
2026-05-03 21:00 31.44132 -80.94367 22124 ft 194 kts 217°
2026-05-03 21:01 31.42932 -80.95107 22129 ft 194 kts 217°
2026-05-03 21:01 31.41738 -80.95844 22127 ft 194 kts 217°
2026-05-03 21:01 31.40548 -80.96580 22126 ft 194 kts 217°
2026-05-03 21:01 31.39350 -80.97319 22129 ft 194 kts 217°
2026-05-03 21:02 31.38158 -80.98054 22125 ft 194 kts 217°
2026-05-03 21:02 31.36964 -80.98790 22129 ft 194 kts 217°
2026-05-03 21:02 31.35772 -80.99525 22130 ft 194 kts 217°
2026-05-03 21:02 31.34580 -81.00260 22130 ft 194 kts 217°
2026-05-03 21:03 31.33384 -81.00996 22125 ft 194 kts 217°
2026-05-03 21:03 31.32198 -81.01727 22125 ft 194 kts 217°
2026-05-03 21:03 31.30996 -81.02467 22125 ft 194 kts 217°
2026-05-03 21:03 31.29822 -81.03189 22125 ft 194 kts 217°
2026-05-03 21:04 31.28612 -81.03934 22124 ft 194 kts 217°
2026-05-03 21:04 31.27434 -81.04658 22125 ft 194 kts 217°
2026-05-03 21:04 31.26243 -81.05391 22125 ft 194 kts 217°
2026-05-03 21:04 31.24986 -81.06033 22126 ft 202 kts 204°
2026-05-03 21:05 31.23560 -81.06156 22133 ft 210 kts 193°
2026-05-03 21:05 31.22094 -81.06171 22130 ft 211 kts 193°
2026-05-03 21:05 31.20630 -81.06199 22127 ft 211 kts 193°
2026-05-03 21:05 31.19163 -81.06233 22127 ft 211 kts 193°
2026-05-03 21:06 31.17688 -81.06264 22126 ft 211 kts 193°
2026-05-03 21:06 31.16217 -81.06295 22126 ft 211 kts 193°
2026-05-03 21:06 31.14746 -81.06325 22124 ft 212 kts 193°
2026-05-03 21:06 31.13275 -81.06355 22123 ft 212 kts 193°
2026-05-03 21:07 31.11806 -81.06386 22120 ft 212 kts 193°
2026-05-03 21:07 31.10333 -81.06416 22120 ft 212 kts 193°
2026-05-03 21:07 31.08852 -81.06447 22119 ft 212 kts 193°
2026-05-03 21:07 31.07378 -81.06477 22122 ft 212 kts 193°
2026-05-03 21:08 31.05926 -81.06507 22121 ft 212 kts 193°
2026-05-03 21:08 31.04451 -81.06538 22124 ft 211 kts 193°
2026-05-03 21:08 31.02964 -81.06569 22121 ft 211 kts 193°
2026-05-03 21:08 31.01509 -81.06599 22119 ft 211 kts 193°
2026-05-03 21:09 31.00037 -81.06629 22118 ft 211 kts 193°
2026-05-03 21:09 30.98568 -81.06660 22123 ft 211 kts 193°
2026-05-03 21:09 30.97099 -81.06690 22123 ft 211 kts 193°
2026-05-03 21:09 30.95628 -81.06720 22123 ft 211 kts 193°
2026-05-03 21:10 30.94153 -81.06751 22121 ft 211 kts 193°
2026-05-03 21:10 30.92681 -81.06781 22122 ft 211 kts 193°
2026-05-03 21:10 30.91212 -81.06811 22123 ft 211 kts 193°
2026-05-03 21:10 30.89737 -81.06842 22123 ft 211 kts 194°
2026-05-03 21:11 30.88270 -81.06872 22124 ft 211 kts 193°
2026-05-03 21:11 30.86799 -81.06902 22122 ft 211 kts 194°
2026-05-03 21:11 30.85343 -81.06932 22122 ft 211 kts 193°
2026-05-03 21:11 30.83875 -81.06962 22123 ft 211 kts 193°
2026-05-03 21:12 30.82400 -81.06993 22118 ft 211 kts 193°
2026-05-03 21:12 30.80939 -81.07023 22121 ft 211 kts 193°
2026-05-03 21:12 30.79463 -81.07053 22118 ft 211 kts 193°
2026-05-03 21:12 30.78000 -81.07083 22119 ft 211 kts 193°
2026-05-03 21:13 30.76524 -81.07113 22118 ft 211 kts 194°
2026-05-03 21:13 30.75056 -81.07144 22120 ft 211 kts 193°
2026-05-03 21:13 30.73587 -81.07174 22121 ft 211 kts 194°
2026-05-03 21:13 30.72137 -81.07204 22116 ft 211 kts 194°
2026-05-03 21:14 30.70669 -81.07234 22119 ft 211 kts 193°
2026-05-03 21:14 30.69196 -81.07264 22120 ft 211 kts 193°
2026-05-03 21:14 30.67735 -81.07294 22121 ft 211 kts 193°
2026-05-03 21:14 30.66263 -81.07324 22118 ft 211 kts 193°
2026-05-03 21:15 30.64794 -81.07354 22120 ft 211 kts 193°
2026-05-03 21:15 30.63326 -81.07384 22116 ft 211 kts 194°
2026-05-03 21:15 30.61872 -81.07459 22118 ft 207 kts 196°
2026-05-03 21:15 30.60424 -81.07545 22116 ft 209 kts 195°
2026-05-03 21:16 30.58978 -81.07619 22112 ft 209 kts 195°
2026-05-03 21:16 30.57526 -81.07705 22115 ft 209 kts 195°
2026-05-03 21:16 30.56073 -81.07794 22115 ft 209 kts 195°
2026-05-03 21:16 30.54622 -81.07883 22119 ft 209 kts 195°
2026-05-03 21:17 30.53189 -81.07969 22115 ft 209 kts 195°
2026-05-03 21:17 30.52207 -81.08028 22117 ft 209 kts 195°
2026-05-03 21:17 30.50281 -81.08144 22117 ft 209 kts 195°
2026-05-03 21:17 30.48825 -81.08232 22119 ft 209 kts 195°
2026-05-03 21:18 30.47366 -81.08320 22117 ft 209 kts 195°
2026-05-03 21:18 30.45918 -81.08407 22114 ft 209 kts 195°
2026-05-03 21:18 30.44461 -81.08495 22114 ft 209 kts 195°
2026-05-03 21:18 30.43012 -81.08582 22115 ft 209 kts 195°
2026-05-03 21:19 30.41575 -81.08668 22113 ft 209 kts 195°
2026-05-03 21:19 30.40119 -81.08756 22111 ft 209 kts 195°
2026-05-03 21:19 30.38666 -81.08843 22114 ft 209 kts 195°
2026-05-03 21:19 30.37212 -81.08930 22113 ft 209 kts 195°
2026-05-03 21:20 30.35755 -81.09018 22114 ft 209 kts 195°
2026-05-03 21:20 30.34306 -81.09105 22112 ft 209 kts 195°
2026-05-03 21:20 30.32848 -81.09193 22112 ft 209 kts 195°
2026-05-03 21:20 30.31391 -81.09280 22112 ft 209 kts 195°
2026-05-03 21:21 30.29939 -81.09367 22114 ft 209 kts 195°
2026-05-03 21:21 30.28488 -81.09454 22112 ft 209 kts 195°
2026-05-03 21:21 30.27037 -81.09541 22112 ft 209 kts 195°
2026-05-03 21:21 30.25577 -81.09629 22111 ft 209 kts 195°
2026-05-03 21:22 30.24121 -81.09716 22113 ft 209 kts 195°
2026-05-03 21:22 30.22666 -81.09803 22108 ft 209 kts 195°
2026-05-03 21:22 30.21218 -81.09890 22110 ft 209 kts 195°
2026-05-03 21:22 30.19765 -81.09977 22110 ft 209 kts 195°
2026-05-03 21:23 30.18306 -81.10064 22111 ft 209 kts 195°
2026-05-03 21:23 30.16853 -81.10151 22112 ft 209 kts 195°
2026-05-03 21:23 30.15403 -81.10238 22113 ft 209 kts 195°
2026-05-03 21:23 30.13948 -81.10325 22114 ft 209 kts 195°
2026-05-03 21:24 30.12498 -81.10412 22112 ft 209 kts 195°
2026-05-03 21:24 30.11045 -81.10498 22113 ft 209 kts 195°
2026-05-03 21:24 30.09610 -81.10584 22110 ft 209 kts 195°
2026-05-03 21:24 30.08146 -81.10672 22111 ft 209 kts 195°
2026-05-03 21:25 30.06710 -81.10757 22115 ft 209 kts 195°
2026-05-03 21:25 30.05259 -81.10844 22115 ft 209 kts 195°
2026-05-03 21:25 30.03792 -81.10931 22121 ft 208 kts 195°
2026-05-03 21:25 30.02360 -81.11017 22115 ft 208 kts 195°
2026-05-03 21:26 30.00913 -81.11103 22116 ft 208 kts 195°
2026-05-03 21:26 29.99931 -81.11162 22116 ft 208 kts 195°
2026-05-03 21:26 29.98020 -81.11276 22117 ft 208 kts 195°
2026-05-03 21:26 29.96571 -81.11362 22113 ft 208 kts 195°
2026-05-03 21:27 29.95123 -81.11448 22114 ft 208 kts 195°
2026-05-03 21:27 29.93677 -81.11534 22120 ft 208 kts 195°
2026-05-03 21:27 29.92229 -81.11621 22116 ft 208 kts 195°
2026-05-03 21:27 29.90781 -81.11707 22114 ft 208 kts 195°
2026-05-03 21:28 29.89340 -81.11792 22119 ft 208 kts 195°
2026-05-03 21:28 29.87897 -81.11878 22122 ft 208 kts 195°
2026-05-03 21:28 29.86935 -81.11936 22119 ft 208 kts 195°
2026-05-03 21:28 29.85469 -81.12023 22120 ft 208 kts 195°
2026-05-03 21:29 29.84023 -81.12109 22117 ft 208 kts 195°
2026-05-03 21:29 29.82577 -81.12190 22116 ft 209 kts 194°
2026-05-03 21:29 29.81093 -81.11891 22120 ft 228 kts 172°
2026-05-03 21:29 29.79644 -81.11176 22122 ft 230 kts 170°
2026-05-03 21:30 29.78170 -81.10438 22121 ft 230 kts 170°
2026-05-03 21:30 29.76696 -81.09717 22119 ft 230 kts 171°
2026-05-03 21:30 29.75220 -81.08997 22117 ft 231 kts 171°
2026-05-03 21:30 29.73741 -81.08272 22115 ft 231 kts 171°
2026-05-03 21:31 29.72263 -81.07546 22111 ft 231 kts 171°
2026-05-03 21:31 29.70785 -81.06821 22109 ft 231 kts 171°
2026-05-03 21:31 29.69306 -81.06096 22109 ft 231 kts 171°
2026-05-03 21:31 29.67841 -81.05379 22110 ft 231 kts 171°
2026-05-03 21:32 29.66348 -81.04647 22108 ft 231 kts 171°
2026-05-03 21:32 29.64863 -81.03920 22106 ft 231 kts 171°
2026-05-03 21:32 29.63384 -81.03196 22106 ft 231 kts 171°
2026-05-03 21:32 29.61904 -81.02472 22106 ft 231 kts 171°
2026-05-03 21:33 29.60441 -81.01757 22109 ft 231 kts 171°
2026-05-03 21:33 29.58962 -81.01033 22109 ft 231 kts 171°
2026-05-03 21:33 29.57482 -81.00309 22108 ft 231 kts 171°
2026-05-03 21:33 29.56007 -80.99589 22110 ft 231 kts 171°
2026-05-03 21:34 29.54529 -80.98867 22109 ft 231 kts 171°
2026-05-03 21:34 29.53045 -80.98142 22107 ft 231 kts 171°
2026-05-03 21:34 29.51565 -80.97419 22110 ft 231 kts 171°
2026-05-03 21:34 29.50087 -80.96697 22110 ft 231 kts 171°
2026-05-03 21:35 29.48604 -80.95974 22107 ft 231 kts 171°
2026-05-03 21:35 29.47122 -80.95251 22103 ft 231 kts 171°
2026-05-03 21:35 29.45649 -80.94533 22101 ft 231 kts 171°
2026-05-03 21:35 29.44162 -80.93808 22103 ft 231 kts 171°
2026-05-03 21:36 29.42700 -80.93096 22101 ft 231 kts 171°
2026-05-03 21:36 29.41202 -80.92366 22101 ft 231 kts 171°
2026-05-03 21:36 29.39744 -80.91655 22101 ft 231 kts 171°
2026-05-03 21:36 29.38265 -80.90936 22102 ft 231 kts 171°
2026-05-03 21:37 29.36766 -80.90206 22102 ft 231 kts 171°
2026-05-03 21:37 29.35299 -80.89492 22102 ft 231 kts 171°
2026-05-03 21:37 29.33821 -80.88773 22100 ft 231 kts 171°
2026-05-03 21:37 29.32346 -80.88056 22101 ft 231 kts 171°
2026-05-03 21:38 29.30856 -80.87331 22101 ft 231 kts 171°
2026-05-03 21:38 29.29376 -80.86613 22100 ft 231 kts 171°
2026-05-03 21:38 29.27899 -80.85895 22102 ft 231 kts 171°
2026-05-03 21:38 29.26411 -80.85172 22100 ft 231 kts 171°
2026-05-03 21:39 29.24933 -80.84455 22103 ft 231 kts 171°
2026-05-03 21:39 29.23473 -80.83746 22100 ft 231 kts 171°
2026-05-03 21:39 29.21995 -80.83029 22094 ft 231 kts 171°
2026-05-03 21:39 29.20493 -80.82300 22095 ft 231 kts 171°
2026-05-03 21:40 29.19019 -80.81586 22094 ft 231 kts 171°
2026-05-03 21:40 29.17535 -80.80867 22095 ft 231 kts 171°
2026-05-03 21:40 29.16058 -80.80151 22092 ft 231 kts 171°
2026-05-03 21:40 29.14579 -80.79434 22093 ft 231 kts 171°
2026-05-03 21:41 29.13103 -80.78719 22090 ft 231 kts 171°
2026-05-03 21:41 29.11638 -80.78010 22092 ft 231 kts 171°
2026-05-03 21:41 29.10161 -80.77295 22095 ft 231 kts 171°
2026-05-03 21:41 29.08685 -80.76581 22094 ft 231 kts 171°
2026-05-03 21:42 29.07209 -80.75867 22092 ft 230 kts 171°
2026-05-03 21:42 29.05731 -80.75153 22096 ft 230 kts 171°
2026-05-03 21:42 29.04252 -80.74438 22086 ft 230 kts 171°
2026-05-03 21:42 29.02773 -80.73723 22096 ft 230 kts 171°
2026-05-03 21:43 29.01299 -80.73011 22093 ft 230 kts 171°
2026-05-03 21:43 28.99827 -80.72300 22084 ft 230 kts 171°
2026-05-03 21:43 28.98354 -80.71589 22092 ft 230 kts 171°
2026-05-03 21:43 28.96878 -80.70880 22093 ft 228 kts 173°
2026-05-03 21:44 28.95401 -80.70236 22090 ft 228 kts 173°
2026-05-03 21:44 28.93925 -80.69561 22092 ft 228 kts 172°
2026-05-03 21:44 28.92451 -80.68892 22089 ft 228 kts 173°
2026-05-03 21:44 28.90969 -80.68230 22089 ft 228 kts 173°
2026-05-03 21:45 28.89500 -80.67575 22073 ft 228 kts 173°
2026-05-03 21:45 28.88032 -80.66918 22075 ft 228 kts 173°
2026-05-03 21:45 28.86535 -80.66248 22074 ft 229 kts 173°
2026-05-03 21:45 28.85072 -80.65594 22064 ft 229 kts 173°
2026-05-03 21:46 28.83588 -80.64930 22071 ft 229 kts 173°
2026-05-03 21:46 28.82105 -80.64267 22072 ft 228 kts 173°
2026-05-03 21:46 28.80624 -80.63605 22068 ft 228 kts 173°
2026-05-03 21:46 28.79132 -80.62939 22064 ft 228 kts 173°
2026-05-03 21:47 28.77664 -80.62283 22057 ft 228 kts 173°
2026-05-03 21:47 28.76192 -80.61625 22061 ft 228 kts 173°
2026-05-03 21:47 28.74712 -80.60965 22059 ft 228 kts 173°
2026-05-03 21:47 28.73230 -80.60304 22057 ft 228 kts 173°
2026-05-03 21:48 28.71747 -80.59642 22057 ft 229 kts 173°
2026-05-03 21:48 28.70263 -80.58981 22055 ft 229 kts 173°
2026-05-03 21:48 28.68788 -80.58323 22058 ft 228 kts 173°
2026-05-03 21:48 28.67308 -80.57663 22056 ft 228 kts 173°
2026-05-03 21:49 28.65823 -80.57002 22057 ft 228 kts 173°
2026-05-03 21:49 28.64348 -80.56345 22055 ft 228 kts 173°
2026-05-03 21:49 28.62868 -80.55686 22056 ft 228 kts 173°
2026-05-03 21:49 28.61393 -80.55029 22056 ft 228 kts 173°
2026-05-03 21:50 28.59919 -80.54374 22055 ft 228 kts 173°
2026-05-03 21:50 28.58442 -80.53717 22029 ft 228 kts 173°
2026-05-03 21:50 28.56963 -80.53059 22027 ft 228 kts 173°
2026-05-03 21:50 28.55484 -80.52401 22029 ft 228 kts 173°
2026-05-03 21:51 28.54000 -80.51742 22029 ft 228 kts 173°
2026-05-03 21:51 28.52542 -80.51094 22025 ft 229 kts 173°
2026-05-03 21:51 28.51060 -80.50436 22027 ft 229 kts 173°
2026-05-03 21:51 28.49582 -80.49779 22028 ft 229 kts 173°
2026-05-03 21:52 28.48096 -80.49120 22028 ft 228 kts 173°
2026-05-03 21:52 28.46615 -80.48462 22029 ft 228 kts 173°
2026-05-03 21:52 28.45128 -80.47803 22027 ft 228 kts 173°
2026-05-03 21:52 28.43650 -80.47147 22025 ft 228 kts 173°
2026-05-03 21:53 28.42176 -80.46493 22028 ft 228 kts 173°
2026-05-03 21:53 28.40695 -80.45837 22026 ft 228 kts 173°
2026-05-03 21:53 28.39218 -80.45183 22027 ft 228 kts 173°
2026-05-03 21:53 28.37736 -80.44526 22032 ft 228 kts 173°
2026-05-03 21:54 28.36258 -80.43871 22032 ft 228 kts 173°
2026-05-03 21:54 28.34787 -80.43221 22034 ft 228 kts 173°
2026-05-03 21:54 28.33307 -80.42565 22030 ft 228 kts 173°
2026-05-03 21:54 28.31832 -80.41913 22038 ft 228 kts 173°
2026-05-03 21:55 28.30353 -80.41259 22040 ft 228 kts 173°
2026-05-03 21:55 28.28873 -80.40604 22035 ft 228 kts 173°
2026-05-03 21:55 28.27392 -80.39950 22042 ft 228 kts 173°
2026-05-03 21:55 28.25917 -80.39298 22040 ft 228 kts 173°
2026-05-03 21:56 28.24439 -80.38645 22039 ft 228 kts 173°
2026-05-03 21:56 28.22957 -80.37991 22041 ft 229 kts 173°
2026-05-03 21:56 28.21472 -80.37336 22042 ft 229 kts 173°
2026-05-03 21:56 28.19988 -80.36680 22040 ft 229 kts 173°
2026-05-03 21:57 28.18502 -80.36024 22040 ft 229 kts 173°
2026-05-03 21:57 28.17020 -80.35370 22041 ft 228 kts 173°
2026-05-03 21:57 28.15565 -80.34728 22042 ft 227 kts 173°
2026-05-03 21:57 28.14073 -80.34071 22042 ft 227 kts 173°
2026-05-03 21:58 28.12613 -80.33427 22044 ft 227 kts 173°
2026-05-03 21:58 28.11146 -80.32781 22046 ft 227 kts 173°
2026-05-03 21:58 28.09668 -80.32130 22054 ft 226 kts 174°
2026-05-03 21:58 28.08202 -80.31562 22054 ft 223 kts 176°
2026-05-03 21:59 28.06726 -80.30976 22052 ft 224 kts 175°
2026-05-03 21:59 28.05254 -80.30390 22047 ft 225 kts 175°
2026-05-03 21:59 28.03775 -80.29812 22047 ft 225 kts 175°
2026-05-03 21:59 28.02297 -80.29235 22048 ft 225 kts 175°
2026-05-03 22:00 28.00835 -80.28568 22051 ft 237 kts 162°
2026-05-03 22:00 27.99660 -80.27105 22060 ft 268 kts 128°
2026-05-03 22:00 27.99132 -80.25025 22061 ft 282 kts 106°
2026-05-03 22:00 27.98892 -80.22816 22061 ft 284 kts 103°
2026-05-03 22:01 27.98687 -80.20582 22060 ft 285 kts 102°
2026-05-03 22:01 27.98487 -80.18352 22053 ft 285 kts 103°
2026-05-03 22:01 27.98286 -80.16123 22059 ft 285 kts 102°
2026-05-03 22:01 27.98087 -80.13892 22054 ft 286 kts 102°
2026-05-03 22:02 27.97886 -80.11643 22056 ft 286 kts 102°
2026-05-03 22:02 27.97687 -80.09414 22059 ft 286 kts 102°
2026-05-03 22:02 27.97486 -80.07175 22057 ft 286 kts 102°
2026-05-03 22:02 27.97281 -80.04922 22052 ft 287 kts 102°
2026-05-03 22:03 27.97080 -80.02684 22052 ft 287 kts 102°
2026-05-03 22:03 27.96878 -80.00439 22050 ft 287 kts 102°
2026-05-03 22:03 27.96675 -79.98194 22050 ft 287 kts 102°
2026-05-03 22:03 27.96471 -79.95978 22045 ft 285 kts 104°
2026-05-03 22:04 27.95817 -79.93968 22039 ft 264 kts 136°
2026-05-03 22:04 27.94549 -79.92587 22037 ft 242 kts 158°
2026-05-03 22:04 27.93177 -79.91553 22038 ft 239 kts 161°
2026-05-03 22:04 27.91774 -79.90547 22037 ft 239 kts 162°
2026-05-03 22:05 27.90366 -79.89546 22037 ft 240 kts 162°
2026-05-03 22:05 27.88944 -79.88537 22032 ft 241 kts 162°
2026-05-03 22:05 27.87522 -79.87530 22032 ft 240 kts 162°
2026-05-03 22:05 27.86113 -79.86531 22035 ft 240 kts 162°
2026-05-03 22:06 27.84695 -79.85525 22033 ft 240 kts 162°
2026-05-03 22:06 27.83285 -79.84524 22034 ft 239 kts 162°
2026-05-03 22:06 27.81878 -79.83526 22034 ft 239 kts 162°
2026-05-03 22:06 27.80467 -79.82526 22033 ft 239 kts 162°
2026-05-03 22:07 27.79060 -79.81530 22036 ft 239 kts 162°
2026-05-03 22:07 27.77649 -79.80531 22033 ft 239 kts 162°
2026-05-03 22:07 27.76242 -79.79534 22034 ft 239 kts 162°
2026-05-03 22:07 27.74829 -79.78535 22036 ft 239 kts 162°
2026-05-03 22:08 27.73419 -79.77539 22030 ft 239 kts 162°
2026-05-03 22:08 27.72010 -79.76543 22030 ft 239 kts 162°
2026-05-03 22:08 27.70607 -79.75552 22032 ft 238 kts 162°
2026-05-03 22:08 27.69193 -79.74553 22030 ft 238 kts 162°
2026-05-03 22:09 27.68268 -79.73899 22026 ft 238 kts 162°
2026-05-03 22:09 27.66401 -79.72581 22028 ft 238 kts 162°
2026-05-03 22:09 27.65455 -79.71915 22028 ft 238 kts 162°
2026-05-03 22:10 27.62639 -79.69939 22029 ft 238 kts 162°
2026-05-03 22:10 27.60773 -79.68631 22030 ft 238 kts 162°
2026-05-03 22:10 27.59821 -79.67966 22027 ft 237 kts 162°
2026-05-03 22:10 27.58373 -79.67233 22030 ft 221 kts 178°
2026-05-03 22:11 27.56896 -79.66826 21987 ft 219 kts 181°
2026-05-03 22:11 27.55355 -79.66472 21653 ft 231 kts 182°
2026-05-03 22:11 27.53751 -79.66133 21334 ft 239 kts 182°
2026-05-03 22:11 27.52093 -79.65801 21020 ft 243 kts 182°
2026-05-03 22:12 27.50416 -79.65481 20704 ft 247 kts 182°
2026-05-03 22:12 27.48707 -79.65167 20390 ft 249 kts 182°
2026-05-03 22:12 27.47012 -79.64865 20077 ft 249 kts 182°
2026-05-03 22:12 27.45305 -79.64567 19775 ft 249 kts 182°
2026-05-03 22:13 27.43587 -79.64273 19469 ft 248 kts 182°
2026-05-03 22:13 27.41891 -79.63988 19168 ft 247 kts 182°
2026-05-03 22:13 27.40197 -79.63709 18870 ft 246 kts 182°
2026-05-03 22:13 27.38492 -79.63435 18573 ft 246 kts 182°
2026-05-03 22:14 27.36803 -79.63168 18274 ft 245 kts 182°
2026-05-03 22:14 27.35113 -79.62906 17932 ft 245 kts 182°
2026-05-03 22:14 27.33445 -79.62652 17604 ft 244 kts 182°
2026-05-03 22:14 27.31766 -79.62404 17270 ft 244 kts 182°
2026-05-03 22:15 27.30088 -79.62166 16941 ft 240 kts 184°
2026-05-03 22:15 27.28526 -79.62476 16608 ft 222 kts 212°
2026-05-03 22:15 27.27239 -79.63387 16293 ft 218 kts 220°
2026-05-03 22:15 27.25945 -79.64277 15975 ft 221 kts 213°
2026-05-03 22:16 27.24532 -79.64990 15659 ft 224 kts 208°
2026-05-03 22:16 27.23072 -79.65623 15349 ft 224 kts 207°
2026-05-03 22:16 27.21627 -79.66266 15041 ft 224 kts 208°
2026-05-03 22:16 27.20175 -79.66937 14731 ft 225 kts 208°
2026-05-03 22:17 27.18727 -79.67605 14425 ft 227 kts 208°
2026-05-03 22:17 27.17259 -79.68277 14131 ft 227 kts 208°
2026-05-03 22:17 27.15797 -79.68946 13832 ft 228 kts 208°
2026-05-03 22:17 27.14341 -79.69611 13555 ft 226 kts 208°
2026-05-03 22:18 27.12889 -79.70275 13299 ft 226 kts 208°
2026-05-03 22:18 27.11439 -79.70939 13039 ft 225 kts 208°
2026-05-03 22:18 27.09969 -79.71611 12784 ft 225 kts 208°
2026-05-03 22:18 27.08517 -79.72275 12531 ft 225 kts 208°
2026-05-03 22:19 27.07093 -79.72926 12284 ft 225 kts 208°
2026-05-03 22:19 27.05642 -79.73589 12038 ft 225 kts 207°
2026-05-03 22:19 27.04214 -79.74239 12010 ft 217 kts 208°
2026-05-03 22:19 27.02836 -79.74867 12011 ft 211 kts 208°
2026-05-03 22:20 27.01498 -79.75478 12009 ft 207 kts 208°
2026-05-03 22:20 27.00166 -79.76087 12008 ft 205 kts 208°
2026-05-03 22:20 26.98849 -79.76689 12007 ft 204 kts 208°
2026-05-03 22:20 26.97540 -79.77286 12007 ft 203 kts 208°
2026-05-03 22:21 26.96249 -79.77875 12006 ft 202 kts 208°
2026-05-03 22:21 26.94949 -79.78468 12005 ft 202 kts 208°
2026-05-03 22:21 26.93638 -79.79066 12004 ft 203 kts 208°
2026-05-03 22:21 26.92326 -79.79664 12005 ft 205 kts 208°
2026-05-03 22:22 26.91006 -79.80265 12005 ft 205 kts 208°
2026-05-03 22:22 26.89679 -79.80870 12008 ft 206 kts 208°
2026-05-03 22:22 26.88352 -79.81474 12010 ft 206 kts 208°
2026-05-03 22:22 26.87022 -79.82080 12013 ft 206 kts 208°
2026-05-03 22:23 26.85695 -79.82684 12011 ft 207 kts 208°
2026-05-03 22:23 26.84363 -79.83290 12008 ft 206 kts 208°
2026-05-03 22:23 26.83035 -79.83893 12011 ft 206 kts 208°
2026-05-03 22:23 26.81722 -79.84491 12015 ft 206 kts 208°
2026-05-03 22:24 26.80393 -79.85095 12012 ft 206 kts 208°
2026-05-03 22:24 26.79062 -79.85700 12015 ft 206 kts 208°
2026-05-03 22:24 26.77730 -79.86306 12013 ft 206 kts 208°
2026-05-03 22:24 26.76394 -79.86913 12019 ft 207 kts 207°
2026-05-03 22:25 26.75058 -79.87520 12022 ft 209 kts 208°
2026-05-03 22:25 26.73699 -79.88138 12023 ft 211 kts 207°
2026-05-03 22:25 26.72332 -79.88758 12029 ft 213 kts 207°
2026-05-03 22:25 26.70943 -79.89389 12026 ft 215 kts 207°
2026-05-03 22:26 26.69580 -79.90006 12026 ft 215 kts 207°
2026-05-03 22:26 26.68192 -79.90636 12022 ft 214 kts 207°
2026-05-03 22:26 26.66810 -79.91263 12023 ft 215 kts 207°
2026-05-03 22:26 26.65425 -79.91891 12022 ft 215 kts 207°
2026-05-03 22:27 26.64044 -79.92517 12020 ft 214 kts 207°
2026-05-03 22:27 26.62644 -79.93151 12015 ft 213 kts 207°
2026-05-03 22:27 26.61292 -79.93763 12017 ft 211 kts 207°
2026-05-03 22:27 26.59935 -79.94378 12018 ft 209 kts 207°
2026-05-03 22:28 26.58584 -79.94990 11933 ft 212 kts 207°
2026-05-03 22:28 26.57186 -79.95627 11616 ft 222 kts 207°
2026-05-03 22:28 26.55732 -79.96286 11307 ft 228 kts 207°
2026-05-03 22:28 26.54246 -79.96957 10999 ft 232 kts 207°
2026-05-03 22:29 26.52743 -79.97635 10686 ft 234 kts 206°
2026-05-03 22:29 26.51226 -79.98321 10388 ft 235 kts 206°
2026-05-03 22:29 26.49712 -79.99025 10089 ft 236 kts 207°
2026-05-03 22:29 26.48192 -79.99737 9772 ft 236 kts 207°
2026-05-03 22:30 26.46681 -80.00441 9435 ft 237 kts 206°
2026-05-03 22:30 26.45155 -80.01148 9110 ft 237 kts 206°
2026-05-03 22:30 26.43651 -80.01844 9025 ft 228 kts 206°
2026-05-03 22:30 26.42155 -80.02295 9016 ft 224 kts 191°
2026-05-03 22:31 26.40616 -80.02463 9018 ft 220 kts 191°
2026-05-03 22:31 26.39109 -80.02642 9019 ft 218 kts 191°
2026-05-03 22:31 26.37603 -80.02827 9023 ft 218 kts 191°
2026-05-03 22:31 26.36090 -80.03009 9024 ft 219 kts 191°
2026-05-03 22:32 26.34589 -80.03249 9019 ft 213 kts 199°
2026-05-03 22:32 26.33367 -80.04075 9009 ft 205 kts 227°
2026-05-03 22:32 26.32636 -80.05312 9011 ft 201 kts 252°
2026-05-03 22:32 26.32429 -80.06404 9016 ft 201 kts 261°
2026-05-03 22:33 26.32250 -80.07955 9015 ft 201 kts 262°
2026-05-03 22:33 26.32087 -80.09508 9015 ft 202 kts 262°
2026-05-03 22:33 26.31926 -80.11058 9017 ft 202 kts 262°
2026-05-03 22:33 26.31768 -80.12620 9021 ft 204 kts 262°
2026-05-03 22:34 26.31612 -80.14188 9024 ft 207 kts 263°
2026-05-03 22:34 26.31446 -80.15791 8885 ft 212 kts 262°
2026-05-03 22:34 26.31273 -80.17464 8551 ft 221 kts 262°
2026-05-03 22:34 26.31093 -80.19177 8235 ft 225 kts 263°
2026-05-03 22:35 26.30906 -80.20909 7922 ft 227 kts 263°
2026-05-03 22:35 26.30710 -80.22666 7645 ft 227 kts 263°
2026-05-03 22:35 26.30511 -80.24411 7399 ft 226 kts 263°
2026-05-03 22:35 26.30307 -80.26146 7160 ft 225 kts 263°
2026-05-03 22:36 26.30094 -80.27859 7008 ft 219 kts 260°
2026-05-03 22:36 26.29400 -80.29329 7008 ft 218 kts 227°
2026-05-03 22:36 26.28056 -80.30088 7008 ft 225 kts 194°
2026-05-03 22:36 26.26494 -80.30004 7002 ft 228 kts 174°
2026-05-03 22:37 26.24930 -80.29666 7000 ft 227 kts 172°
2026-05-03 22:37 26.23390 -80.29316 7002 ft 225 kts 172°
2026-05-03 22:37 26.21855 -80.28967 6999 ft 226 kts 173°
2026-05-03 22:37 26.20310 -80.28605 6994 ft 226 kts 172°
2026-05-03 22:38 26.18768 -80.28246 6993 ft 226 kts 173°
2026-05-03 22:38 26.17238 -80.27888 6995 ft 225 kts 172°
2026-05-03 22:38 26.15716 -80.27532 6996 ft 224 kts 173°
2026-05-03 22:38 26.14182 -80.27172 6999 ft 224 kts 172°
2026-05-03 22:39 26.12663 -80.26812 6996 ft 224 kts 172°
2026-05-03 22:39 26.11140 -80.26453 6995 ft 224 kts 172°
2026-05-03 22:39 26.09611 -80.26092 6999 ft 224 kts 173°
2026-05-03 22:39 26.08084 -80.25727 6997 ft 224 kts 173°
2026-05-03 22:40 26.06563 -80.25365 6998 ft 224 kts 173°
2026-05-03 22:40 26.05044 -80.25007 6997 ft 224 kts 173°
2026-05-03 22:40 26.03547 -80.24651 6996 ft 224 kts 172°
2026-05-03 22:40 26.02023 -80.24312 6993 ft 219 kts 178°
2026-05-03 22:41 26.00582 -80.24612 6991 ft 210 kts 213°
2026-05-03 22:41 25.99574 -80.25734 6790 ft 211 kts 244°
2026-05-03 22:41 25.99156 -80.27312 6493 ft 217 kts 261°
2026-05-03 22:41 25.98900 -80.29005 6178 ft 224 kts 262°
2026-05-03 22:42 25.98668 -80.30736 5861 ft 228 kts 263°
2026-05-03 22:42 25.98437 -80.32484 5539 ft 229 kts 262°
2026-05-03 22:42 25.98221 -80.34212 5220 ft 221 kts 263°
2026-05-03 22:42 25.98017 -80.35887 4905 ft 216 kts 263°
2026-05-03 22:43 25.97822 -80.37476 4584 ft 198 kts 263°
2026-05-03 22:43 25.97655 -80.38887 4261 ft 177 kts 263°
2026-05-03 22:43 25.97510 -80.40187 3934 ft 163 kts 263°
2026-05-03 22:43 25.97382 -80.41386 3681 ft 150 kts 263°
2026-05-03 22:44 25.97265 -80.42521 3437 ft 146 kts 263°
2026-05-03 22:44 25.97118 -80.43624 3197 ft 142 kts 248°
2026-05-03 22:44 25.96413 -80.44334 3016 ft 143 kts 197°
2026-05-03 22:44 25.95415 -80.44250 2838 ft 147 kts 173°
2026-05-03 22:45 25.94408 -80.44008 2598 ft 149 kts 172°
2026-05-03 22:45 25.93411 -80.43661 2361 ft 153 kts 148°
2026-05-03 22:45 25.92819 -80.42660 2134 ft 160 kts 113°
2026-05-03 22:45 25.92444 -80.41519 2005 ft 153 kts 111°
2026-05-03 22:46 25.92119 -80.40513 1998 ft 125 kts 113°
2026-05-03 22:46 25.91846 -80.39646 1994 ft 114 kts 112°
2026-05-03 22:46 25.91592 -80.38820 2005 ft 112 kts 112°
2026-05-03 22:46 25.91358 -80.37993 2004 ft 112 kts 114°
2026-05-03 22:47 25.91171 -80.37147 1960 ft 117 kts 98°
2026-05-03 22:47 25.91091 -80.36290 1675 ft 107 kts 98°
2026-05-03 22:47 25.91018 -80.35467 1296 ft 108 kts 94°
2026-05-03 22:47 25.91005 -80.34611 961 ft 107 kts 90°
2026-05-03 22:48 25.91026 -80.33833 858 ft 98 kts 90°
2026-05-03 22:48 25.91045 -80.33088 784 ft 93 kts 88°
2026-05-03 22:48 25.91086 -80.32360 658 ft 93 kts 86°
2026-05-03 22:48 25.91120 -80.31652 524 ft 89 kts 86°
2026-05-03 22:49 25.91150 -80.31004 378 ft 82 kts 88°
2026-05-03 22:49 25.91182 -80.30404 299 ft 78 kts 83°
2026-05-03 22:49 25.91226 -80.29779 248 ft 81 kts 85°
2026-05-03 22:49 25.91250 -80.29148 116 ft 80 kts 86°
2026-05-03 22:50 25.91269 -80.28750 49 ft 75 kts 88°
2026-05-03 22:50 25.91304 -80.28116 10 ft 49 kts 87°
2026-05-03 22:50 25.91305 -80.27946 10 ft 9 kts 103°
2026-05-03 22:50 25.91236 -80.27901 11 ft 16 kts 186°
2026-05-03 22:51 25.91198 -80.27901 12 ft 0 kts 178°
2026-05-03 22:53 25.91197 -80.27901 12 ft 1 kts 176°
2026-05-03 22:53 25.91176 -80.27877 12 ft 8 kts 92°
2026-05-03 22:54 25.91180 -80.27786 12 ft 9 kts 88°
2026-05-03 22:54 25.91183 -80.27738 12 ft 9 kts 87°
2026-05-03 22:54 25.91186 -80.27666 12 ft 9 kts 87°
2026-05-03 22:54 25.91161 -80.27614 12 ft 9 kts 168°
2026-05-03 22:55 25.91091 -80.27611 12 ft 11 kts 178°
2026-05-03 22:55 25.91012 -80.27609 12 ft 12 kts 179°
2026-05-03 22:55 25.90961 -80.27559 12 ft 4 kts 124°
2026-05-03 22:55 25.90960 -80.27558 12 ft 0 kts 123°
2026-05-03 22:56 25.90967 -80.27531 12 ft 10 kts 43°
2026-05-03 22:56 25.91034 -80.27486 12 ft 12 kts 30°
2026-05-03 22:56 25.91105 -80.27437 12 ft 12 kts 31°
2026-05-03 22:56 25.91146 -80.27367 12 ft 9 kts 91°
2026-05-03 22:57 25.91147 -80.27310 12 ft 7 kts 86°
2026-05-03 22:57 25.91150 -80.27255 12 ft 8 kts 86°
2026-05-03 22:57 25.91154 -80.27190 12 ft 9 kts 87°
2026-05-03 22:57 25.91157 -80.27119 12 ft 9 kts 88°
2026-05-03 22:58 25.91159 -80.27047 12 ft 9 kts 95°
2026-05-03 22:58 25.91108 -80.27023 12 ft 10 kts 185°
2026-05-03 22:58 25.91054 -80.27058 12 ft 9 kts 271°
2026-05-03 22:58 25.91098 -80.27091 12 ft 8 kts 359°
2026-05-03 22:59 25.91103 -80.27091 12 ft 0 kts 358°
2026-05-03 22:59 25.91106 -80.27091 12 ft 0 kts 355°